Morris, MN

7:23 AM CST on February 19, 2017 (GMT -0600)
Morris Municipal

Weather History for KMOX - August, 2013

Change the Weather History Date:

Tuesday, August 6, 2013

  Actual Average Record
Temperature  
Mean Temperature 68 °F -  
Max Temperature 80 °F 76 °F 91 °F (2001)
Min Temperature 55 °F 55 °F 51 °F (2004)
Cooling Degree Days 2    
Growing Degree Days 18 (Base 50)    
Moisture  
Dew Point 61 °F    
Average Humidity 84    
Maximum Humidity 100    
Minimum Humidity 58    
Precipitation  
Precipitation 0.31 in - - ()
Sea Level Pressure  
Sea Level Pressure 29.77 in    
Wind  
Wind Speed 6 mph (WSW)    
Max Wind Speed 31 mph    
Max Gust Speed 46 mph    
Visibility 9 miles    
Events Rain , Thunderstorm    
Averages and records for this station are not official NWS values.
T = Trace of Precipitation, MM = Missing Value Source: NWS Daily Summary

Daily Weather History Graph

Daily Weather History Graph

Search for Another Location

Airport or City:

Trip Planner

Search our weather history database for the weather conditions in past years. The results will help you decide how hot, cold, wet, or windy it might be!

Date:

Astronomy

Aug. 06, 2013 Rise Set
Actual Time 6:13 AM CDT 8:44 PM CDT
Civil Twilight 5:40 AM CDT 9:18 PM CDT
Nautical Twilight 4:58 AM CDT 9:59 PM CDT
Astronomical Twilight 4:10 AM CDT 10:47 PM CDT
Moon 6:09 AM CDT (8/6) 8:15 PM CDT (8/6)
Length of Visible Light 15h 37m
Length of Day
14h 31m
Waning Crescent, 0% of the Moon is Illuminated
Aug 6
Waning Crescent
Aug 6
New
Aug 14
First Quarter
Aug 20
Full
Aug 28
Last Quarter

Hourly Weather History & Observations

Time (CDT) Temp. Heat Index Dew Point Humidity Pressure Visibility Wind Dir Wind Speed Gust Speed Precip Events Conditions
12:09 AM 57.2 °F - 55.4 °F 94% 29.86 in 10.0 mi Calm Calm - N/A   Clear
12:29 AM 57.2 °F - 55.4 °F 94% 29.86 in 10.0 mi Calm Calm - N/A   Clear
12:49 AM 57.2 °F - 55.4 °F 94% 29.86 in 3.0 mi Calm Calm - N/A   Clear
1:09 AM 57.2 °F - 55.4 °F 94% 29.85 in 2.5 mi Calm Calm - N/A   Clear
1:29 AM 55.4 °F - 53.6 °F 94% 29.84 in 1.5 mi ESE 3.5 mph - N/A   Mist
1:49 AM 57.2 °F - 55.4 °F 94% 29.83 in 10.0 mi ESE 3.5 mph - N/A   Clear
2:09 AM 55.4 °F - 55.4 °F 100% 29.84 in 4.0 mi South 3.5 mph - N/A   Clear
2:29 AM 55.4 °F - 55.4 °F 100% 29.84 in 10.0 mi Calm Calm - N/A   Clear
2:49 AM 55.4 °F - 55.4 °F 100% 29.82 in 7.0 mi SE 3.5 mph - N/A   Clear
3:09 AM 55.4 °F - 55.4 °F 100% 29.81 in 10.0 mi ESE 4.6 mph - N/A   Clear
3:29 AM 55.4 °F - 55.4 °F 100% 29.80 in 10.0 mi ESE 4.6 mph - N/A   Clear
3:49 AM 55.4 °F - 55.4 °F 100% 29.80 in 10.0 mi SE 4.6 mph - N/A   Clear
4:09 AM 55.4 °F - 53.6 °F 94% 29.79 in 10.0 mi SSE 6.9 mph - N/A   Clear
4:29 AM 55.4 °F - 55.4 °F 100% 29.78 in 10.0 mi SSE 5.8 mph - N/A   Clear
4:49 AM 55.4 °F - 55.4 °F 100% 29.79 in 10.0 mi SSE 5.8 mph - N/A   Clear
5:09 AM 57.2 °F - 55.4 °F 94% 29.79 in 10.0 mi SSE 5.8 mph - N/A   Clear
5:29 AM 57.2 °F - 57.2 °F 100% 29.79 in 10.0 mi SSE 8.1 mph - N/A   Clear
5:49 AM 57.2 °F - 57.2 °F 100% 29.80 in 10.0 mi SSE 5.8 mph - N/A   Clear
6:09 AM 57.2 °F - 57.2 °F 100% 29.80 in 10.0 mi SE 5.8 mph - N/A   Clear
6:29 AM 59.0 °F - 57.2 °F 94% 29.79 in 10.0 mi ESE 5.8 mph - N/A   Scattered Clouds
6:49 AM 59.0 °F - 57.2 °F 94% 29.78 in 10.0 mi ESE 5.8 mph - N/A   Scattered Clouds
7:09 AM 59.0 °F - 57.2 °F 94% 29.77 in 10.0 mi SE 8.1 mph - N/A   Mostly Cloudy
7:29 AM 60.8 °F - 57.2 °F 88% 29.77 in 10.0 mi SE 9.2 mph - N/A   Mostly Cloudy
7:49 AM 60.8 °F - 59.0 °F 94% 29.76 in 10.0 mi SSE 9.2 mph - N/A   Mostly Cloudy
8:09 AM 62.6 °F - 60.8 °F 94% 29.77 in 10.0 mi SSE 11.5 mph - N/A   Mostly Cloudy
8:29 AM 62.6 °F - 60.8 °F 94% 29.77 in 10.0 mi SSE 12.7 mph - N/A   Scattered Clouds
8:49 AM 64.4 °F - 62.6 °F 94% 29.77 in 10.0 mi South 10.4 mph - N/A   Clear
9:09 AM 66.2 °F - 62.6 °F 88% 29.75 in 10.0 mi South 10.4 mph 18.4 mph N/A   Clear
9:29 AM 66.2 °F - 62.6 °F 88% 29.75 in 10.0 mi South 11.5 mph - N/A   Clear
9:49 AM 69.8 °F - 64.4 °F 83% 29.74 in 10.0 mi South 6.9 mph - N/A   Clear
10:09 AM 71.6 °F - 64.4 °F 78% 29.74 in 10.0 mi SSW 8.1 mph - N/A   Clear
10:29 AM 73.4 °F - 64.4 °F 73% 29.74 in 10.0 mi WSW 4.6 mph - N/A   Clear
10:49 AM 75.2 °F - 64.4 °F 69% 29.74 in 10.0 mi West 10.4 mph - N/A   Clear
11:09 AM 75.2 °F - 64.4 °F 69% 29.74 in 10.0 mi West 8.1 mph - N/A   Clear
11:29 AM 77.0 °F - 64.4 °F 65% 29.74 in 10.0 mi West 10.4 mph - N/A   Clear
11:49 AM 77.0 °F - 64.4 °F 65% 29.74 in 10.0 mi West 9.2 mph - N/A   Clear
12:09 PM 78.8 °F - 64.4 °F 61% 29.74 in 10.0 mi WSW 6.9 mph - N/A   Clear
12:29 PM 78.8 °F - 64.4 °F 61% 29.74 in 10.0 mi WSW 4.6 mph - N/A   Clear
12:49 PM 80.6 °F 82.3 °F 64.4 °F 58% 29.74 in 10.0 mi West 10.4 mph - N/A   Clear
1:09 PM 80.6 °F 82.3 °F 64.4 °F 58% 29.74 in 10.0 mi West 12.7 mph 18.4 mph N/A   Clear
1:29 PM 80.6 °F 82.3 °F 64.4 °F 58% 29.73 in 10.0 mi West 12.7 mph - N/A   Scattered Clouds
1:49 PM 80.6 °F 82.7 °F 66.2 °F 61% 29.74 in 10.0 mi West 11.5 mph 18.4 mph N/A   Scattered Clouds
2:09 PM 80.6 °F 82.7 °F 66.2 °F 61% 29.74 in 10.0 mi West 11.5 mph - N/A   Scattered Clouds
2:29 PM 80.6 °F 82.3 °F 64.4 °F 58% 29.73 in 10.0 mi West 10.4 mph - N/A   Scattered Clouds
2:49 PM 80.6 °F 82.3 °F 64.4 °F 58% 29.73 in 10.0 mi West 11.5 mph 17.3 mph N/A   Clear
3:09 PM 80.6 °F 82.7 °F 66.2 °F 61% 29.73 in 10.0 mi West 9.2 mph - N/A   Clear
3:29 PM 80.6 °F 82.7 °F 66.2 °F 61% 29.72 in 10.0 mi West 6.9 mph - N/A   Clear
3:49 PM 80.6 °F 82.7 °F 66.2 °F 61% 29.71 in 10.0 mi WSW 6.9 mph - N/A Thunderstorm Thunderstorm
4:09 PM 78.8 °F - 66.2 °F 65% 29.73 in 7.0 mi NNW 31.1 mph 46.0 mph N/A Thunderstorm Thunderstorm
4:29 PM 71.6 °F - 62.6 °F 73% 29.71 in 10.0 mi NW 4.6 mph - N/A Thunderstorm Thunderstorm
4:49 PM 75.2 °F - 64.4 °F 69% 29.69 in 10.0 mi WNW 4.6 mph - N/A   Scattered Clouds
5:09 PM 78.8 °F - 64.4 °F 61% 29.68 in 10.0 mi Calm Calm - N/A   Clear
5:29 PM 75.2 °F - 64.4 °F 69% 29.68 in 10.0 mi Calm Calm - N/A Thunderstorm Scattered Clouds
5:49 PM 78.8 °F - 64.4 °F 61% 29.69 in 10.0 mi Calm Calm - N/A   Scattered Clouds
6:09 PM 75.2 °F - 66.2 °F 73% 29.71 in 10.0 mi NNE 6.9 mph - N/A Thunderstorm Scattered Clouds
6:29 PM 69.8 °F - 62.6 °F 78% 29.74 in 10.0 mi North 19.6 mph 25.3 mph N/A   Scattered Clouds
6:49 PM 64.4 °F - 60.8 °F 88% 29.77 in 1.8 mi NNW 4.6 mph 24.2 mph 0.31 in Rain , Thunderstorm Heavy Thunderstorms and Rain
7:09 PM 64.4 °F - 62.6 °F 94% 29.77 in 10.0 mi NNW 3.5 mph - N/A Thunderstorm Mostly Cloudy
7:29 PM 66.2 °F - 62.6 °F 88% 29.76 in 10.0 mi WNW 9.2 mph - N/A   Clear
7:49 PM 66.2 °F - 62.6 °F 88% 29.74 in 10.0 mi NW 8.1 mph - N/A   Clear
8:09 PM 64.4 °F - 62.6 °F 94% 29.74 in 10.0 mi NW 10.4 mph - N/A   Clear
8:29 PM 64.4 °F - 62.6 °F 94% 29.76 in 10.0 mi NW 6.9 mph - N/A   Clear
8:49 PM 64.4 °F - 62.6 °F 94% 29.78 in 10.0 mi NW 3.5 mph - N/A   Clear
9:09 PM 64.4 °F - 62.6 °F 94% 29.81 in 10.0 mi NNW 8.1 mph - N/A   Clear
9:29 PM 64.4 °F - 62.6 °F 94% 29.82 in 10.0 mi NW 8.1 mph - N/A   Clear
9:49 PM 62.6 °F - 62.6 °F 100% 29.83 in 10.0 mi NW 8.1 mph - N/A   Clear
10:09 PM 62.6 °F - 62.6 °F 100% 29.83 in 10.0 mi NW 9.2 mph - N/A   Clear
10:29 PM 62.6 °F - 62.6 °F 100% 29.84 in 10.0 mi NW 9.2 mph - N/A   Scattered Clouds
10:49 PM 62.6 °F - 62.6 °F 100% 29.84 in 10.0 mi NW 10.4 mph - N/A   Mostly Cloudy
11:09 PM 64.4 °F - 62.6 °F 94% 29.85 in 10.0 mi NNW 11.5 mph 17.3 mph N/A   Mostly Cloudy
11:29 PM 64.4 °F - 62.6 °F 94% 29.86 in 10.0 mi NW 10.4 mph - N/A   Mostly Cloudy
11:49 PM 64.4 °F - 62.6 °F 94% 29.86 in 10.0 mi NW 11.5 mph - N/A   Overcast